Location: Gleizolles
(44.4833°N, 6.7667°E)
Time: 10:18:21
(UTC+00:00)

Tiros 1 - Pass Details

Date: 27 June 2024
Orbit: 624 x 656 km, 48.4° (Epoch: 20 July)

Event Time Altitude Azimuth Distance (km) Brightness Sun altitude
Rises 00:40:07 0° 279° (W) 2,903 10.4 -20.6°
Reaches altitude 10° 00:42:29 10° 285° (WNW) 1,998 9.6 -20.5°
Maximum altitude 00:46:58 51° 1° (N) 788 7.9 -20.3°
Drops below altitude 10° 00:51:29 10° 78° (ENE) 2,011 10.0 -20.0°
Sets 00:53:52 0° 84° (E) 2,924 10.9 -19.9°
